Miles City, MT

2:49 AM MDT on April 27, 2017 (GMT -0600)
Wiley

Weather History for KMLS - February, 2013

Change the Weather History Date:

Wednesday, February 6, 2013

  Actual Average Record
Temperature  
Mean Temperature 40 °F 22 °F  
Max Temperature 48 °F 33 °F 61 °F (1987)
Min Temperature 32 °F 11 °F -26 °F (1971)
Degree Days  
Heating Degree Days 25 43  
Month to date heating degree days 182 260  
Since 1 July heating degree days 4462 4856  
Cooling Degree Days 0 0  
Month to date cooling degree days 0 0  
Year to date cooling degree days 0 0  
Moisture  
Dew Point 28 °F    
Average Humidity 64    
Maximum Humidity 82    
Minimum Humidity 45    
Precipitation  
Precipitation 0.00 in 0.01 in 0.10 in (1958)
Month to date precipitation T 0.04  
Year to date precipitation 0.18 0.36  
Sea Level Pressure  
Sea Level Pressure 29.90 in    
Wind  
Wind Speed 8 mph (West)    
Max Wind Speed 18 mph    
Max Gust Speed 25 mph    
Visibility 10 miles    
Events      
T = Trace of Precipitation, MM = Missing Value Source: NWS Daily Summary

Daily Weather History Graph

Daily Weather History Graph

Search for Another Location

Airport or City:

Trip Planner

Search our weather history database for the weather conditions in past years. The results will help you decide how hot, cold, wet, or windy it might be!

Date:

Astronomy

Feb. 06, 2013 Rise Set
Actual Time 7:19 AM MST 5:15 PM MST
Civil Twilight 6:48 AM MST 5:47 PM MST
Nautical Twilight 6:12 AM MST 6:23 PM MST
Astronomical Twilight 5:37 AM MST 6:58 PM MST
Moon 4:13 AM MST (2/6) 1:30 PM MST (2/6)
Length of Visible Light 10h 59m
Length of Day
9h 56m
Waning Crescent, 16% of the Moon is Illuminated
Feb 6
Waning Crescent
Feb 10
New
Feb 17
First Quarter
Feb 25
Full
Mar 4
Last Quarter

Hourly Weather History & Observations

Time (MST) Temp. Windchill Dew Point Humidity Pressure Visibility Wind Dir Wind Speed Gust Speed Precip Events Conditions
12:53 AM 35.1 °F 30.1 °F 28.0 °F 76% 29.74 in 10.0 mi SSW 5.8 mph - N/A   Scattered Clouds
1:53 AM 35.1 °F 31.0 °F 28.0 °F 76% 29.75 in 10.0 mi SW 4.6 mph - N/A   Overcast
2:53 AM 34.0 °F - 28.9 °F 82% 29.76 in 10.0 mi Calm Calm - N/A   Overcast
3:53 AM 35.1 °F - 28.0 °F 76% 29.76 in 10.0 mi Calm Calm - N/A   Mostly Cloudy
5:53 AM 34.0 °F 27.2 °F 28.0 °F 79% 29.82 in 10.0 mi South 8.1 mph - N/A   Overcast
6:53 AM 34.0 °F 28.0 °F 28.0 °F 79% 29.83 in 10.0 mi SW 6.9 mph - N/A   Overcast
7:53 AM 35.1 °F 26.9 °F 28.0 °F 76% 29.86 in 10.0 mi WSW 11.5 mph - N/A   Mostly Cloudy
8:53 AM 37.0 °F 29.3 °F 28.0 °F 70% 29.88 in 10.0 mi WSW 11.5 mph - N/A   Partly Cloudy
9:53 AM 41.0 °F 34.7 °F 28.9 °F 62% 29.89 in 10.0 mi WNW 10.4 mph 18.4 mph N/A   Clear
10:53 AM 44.1 °F 39.0 °F 30.0 °F 58% 29.89 in 10.0 mi WNW 9.2 mph - N/A   Clear
11:53 AM 46.0 °F 39.3 °F 28.0 °F 50% 29.89 in 10.0 mi WNW 16.1 mph - N/A   Clear
12:53 PM 46.9 °F - 30.0 °F 52% 29.90 in 10.0 mi West 15.0 mph - N/A   Clear
1:53 PM 46.9 °F - 27.0 °F 46% 29.90 in 10.0 mi WNW 16.1 mph - N/A   Clear
2:53 PM 46.9 °F - 26.1 °F 44% 29.90 in 10.0 mi NW 16.1 mph 23.0 mph N/A   Clear
3:53 PM 46.9 °F - 27.0 °F 46% 29.92 in 10.0 mi WNW 8.1 mph - N/A   Clear
4:53 PM 45.0 °F - 26.1 °F 48% 29.94 in 10.0 mi Calm Calm - N/A   Clear
5:53 PM 43.0 °F - 26.1 °F 51% 29.96 in 10.0 mi Calm Calm - N/A   Overcast
6:53 PM 37.9 °F 32.7 °F 27.0 °F 65% 29.99 in 10.0 mi NW 6.9 mph - N/A   Overcast
7:53 PM 37.0 °F 31.6 °F 28.0 °F 70% 30.01 in 10.0 mi SW 6.9 mph - N/A   Overcast
8:53 PM 37.0 °F 33.3 °F 27.0 °F 67% 30.01 in 10.0 mi NW 4.6 mph - N/A   Clear
9:53 PM 34.0 °F 28.0 °F 26.1 °F 73% 30.03 in 10.0 mi West 6.9 mph - N/A   Clear
10:53 PM 35.1 °F 27.4 °F 26.1 °F 70% 30.04 in 10.0 mi West 10.4 mph - N/A   Clear
11:53 PM 33.1 °F 26.9 °F 25.0 °F 72% 30.05 in 10.0 mi West 6.9 mph - N/A   Clear